Location: Observatoire
(46.1952°N, 5.3391°E)
Time: 16:02:50
(UTC+01:00)

Injun/Solrad 3 - Pass Details

Date: 16 February 2026
Orbit: 872 x 984 km, 66.8° (Epoch: 7 March)

Event Time Altitude Azimuth Distance (km) Brightness Sun altitude
Rises 18:52:57 0° 329° (NNW) 3,545 11.3 -8.8°
Reaches altitude 10° 18:56:06 10° 345° (NNW) 2,621 10.4 -9.3°
Maximum altitude 19:00:40 21° 34° (NNE) 1,953 9.2 -10.1°
Enters shadow 19:04:21 13° 75° (ENE) 2,434 9.4 -10.7°
